Tracking 25193 objects as of 17-Jan-2022
HD Live streaming from Space Station
objects crossing your sky now

TELSTAR 302

Track TELSTAR 302 now!
TELSTAR 302 is classified as:


NORAD ID: 15237
Int'l Code: 1984-093D
Perigee: 35,912.2 km
Apogee: 35,949.9 km
Inclination: 15.0 °
Period: 1,443.1 minutes
Semi major axis: 42302 km
RCS: 4.6276 m2 (large)
Launch date: August 30, 1984
Source: United States (US)
Launch site: AIR FORCE EASTERN TEST RANGE (AFETR)
aabbcc
Your satellite tracking list
Your tracking list is empty




NASA's NSSDC Master Catalog

Two Line Element Set (TLE):
1 15237U 84093D   22016.80327213 -.00000281  00000-0  00000-0 0  9991
2 15237  14.9700 357.8744 0004451  80.9686 288.3545  0.99783943 30358
Source of the keplerian elements: AFSPC